Time,TemperatureF,DewpointF,PressureIn,WindDirection,WindDirectionDegrees,WindSpeedMPH,WindSpeedGustMPH,Humidity,HourlyPrecipIn,Conditions,Clouds,dailyrainin,SoftwareType,DateUTC
2013-07-28 00:01:00,56.1,48.9,-100.00,NNW,327,0.0,0.0,77,0.00,,,0.00,meteohub,2013-07-28 05:01:00,
2013-07-28 00:06:00,55.9,48.9,-100.00,NW,326,0.0,1.0,77,0.00,,,0.00,meteohub,2013-07-28 05:06:00,
2013-07-28 00:11:00,55.9,49.1,-100.00,NNW,327,0.0,1.0,78,0.00,,,0.00,meteohub,2013-07-28 05:11:00,
2013-07-28 00:16:00,55.8,48.9,-100.00,NW,326,0.0,1.0,78,0.00,,,0.00,meteohub,2013-07-28 05:16:00,
2013-07-28 00:22:00,55.6,48.9,-100.00,NNW,327,0.0,0.0,78,0.00,,,0.00,meteohub,2013-07-28 05:22:00,
2013-07-28 00:27:00,55.6,49.5,-100.00,NNW,327,0.0,0.0,80,0.00,,,0.00,meteohub,2013-07-28 05:27:00,
2013-07-28 00:32:00,55.4,49.3,-100.00,NNW,327,0.0,0.0,80,0.00,,,0.00,meteohub,2013-07-28 05:32:00,
2013-07-28 00:37:00,55.0,48.9,-100.00,NNW,327,0.0,0.0,80,0.00,,,0.00,meteohub,2013-07-28 05:37:00,
2013-07-28 00:42:00,54.9,48.7,-100.00,NNW,327,0.0,0.0,80,0.00,,,0.00,meteohub,2013-07-28 05:42:00,
2013-07-28 00:47:00,54.9,49.1,-100.00,NNW,327,0.0,0.0,81,0.00,,,0.00,meteohub,2013-07-28 05:47:00,
2013-07-28 00:52:00,54.9,49.5,-100.00,NNW,327,0.0,0.0,82,0.00,,,0.00,meteohub,2013-07-28 05:52:00,
2013-07-28 00:57:00,55.0,49.6,-100.00,NW,326,0.0,0.0,82,0.00,,,0.00,meteohub,2013-07-28 05:57:00,
2013-07-28 01:02:00,54.9,49.5,-100.00,NNW,327,0.0,0.0,82,0.00,,,0.00,meteohub,2013-07-28 06:02:00,
2013-07-28 01:07:00,54.5,49.1,-100.00,NW,326,1.0,0.0,82,0.00,,,0.00,meteohub,2013-07-28 06:07:00,
2013-07-28 01:12:00,54.1,48.7,-100.00,NW,326,1.0,2.0,82,0.00,,,0.00,meteohub,2013-07-28 06:12:00,
2013-07-28 01:17:00,54.1,49.1,-100.00,NW,326,2.0,2.0,83,0.00,,,0.00,meteohub,2013-07-28 06:17:00,
2013-07-28 01:22:00,54.1,49.1,-100.00,NW,326,0.0,3.0,83,0.00,,,0.00,meteohub,2013-07-28 06:22:00,
2013-07-28 01:27:00,54.0,49.3,-100.00,NW,326,0.0,3.0,84,0.00,,,0.00,meteohub,2013-07-28 06:27:00,
2013-07-28 01:32:00,53.8,49.1,-100.00,NW,326,0.0,3.0,84,0.00,,,0.00,meteohub,2013-07-28 06:32:00,
2013-07-28 01:37:00,53.8,49.5,-100.00,NW,326,0.0,1.0,85,0.00,,,0.00,meteohub,2013-07-28 06:37:00,
2013-07-28 01:42:00,53.6,49.3,-100.00,NW,326,0.0,0.0,85,0.00,,,0.00,meteohub,2013-07-28 06:42:00,
2013-07-28 01:47:00,53.6,49.3,-100.00,NW,326,0.0,0.0,85,0.00,,,0.00,meteohub,2013-07-28 06:47:00,
2013-07-28 01:52:00,53.4,49.1,-100.00,NW,326,0.0,0.0,85,0.00,,,0.00,meteohub,2013-07-28 06:52:00,
2013-07-28 01:57:00,53.8,49.5,-100.00,NW,326,0.0,0.0,85,0.00,,,0.00,meteohub,2013-07-28 06:57:00,
2013-07-28 02:02:00,54.0,49.6,-100.00,NW,326,0.0,0.0,85,0.00,,,0.00,meteohub,2013-07-28 07:02:00,
2013-07-28 02:07:00,53.8,49.5,-100.00,NW,326,0.0,0.0,85,0.00,,,0.00,meteohub,2013-07-28 07:07:00,
2013-07-28 02:12:00,53.6,49.3,-100.00,NW,326,0.0,0.0,85,0.00,,,0.00,meteohub,2013-07-28 07:12:00,
2013-07-28 02:17:00,53.4,48.7,-100.00,NW,326,0.0,0.0,84,0.00,,,0.00,meteohub,2013-07-28 07:17:00,
2013-07-28 02:22:00,53.2,48.6,-100.00,NW,326,0.0,0.0,84,0.00,,,0.00,meteohub,2013-07-28 07:22:00,
2013-07-28 02:27:00,53.1,48.4,-100.00,NW,326,0.0,0.0,84,0.00,,,0.00,meteohub,2013-07-28 07:27:00,
2013-07-28 02:32:00,52.9,48.6,-100.00,NW,326,0.0,0.0,85,0.00,,,0.00,meteohub,2013-07-28 07:32:00,
2013-07-28 02:37:00,52.9,48.6,-100.00,NW,325,0.0,0.0,85,0.00,,,0.00,meteohub,2013-07-28 07:37:00,
2013-07-28 02:42:00,53.1,48.7,-100.00,NW,325,0.0,0.0,85,0.00,,,0.00,meteohub,2013-07-28 07:42:00,
2013-07-28 02:47:00,53.1,48.7,-100.00,NW,325,0.0,0.0,85,0.00,,,0.00,meteohub,2013-07-28 07:47:00,
2013-07-28 02:52:00,53.1,48.9,-100.00,NW,314,0.0,3.0,86,0.00,,,0.00,meteohub,2013-07-28 07:52:00,
2013-07-28 02:57:00,53.1,48.9,-100.00,NW,313,0.0,3.0,86,0.00,,,0.00,meteohub,2013-07-28 07:57:00,
2013-07-28 03:02:00,53.2,49.5,-100.00,NW,313,0.0,3.0,87,0.00,,,0.00,meteohub,2013-07-28 08:02:00,
2013-07-28 03:07:00,53.2,49.5,-100.00,NW,313,0.0,0.0,87,0.00,,,0.00,meteohub,2013-07-28 08:07:00,
2013-07-28 03:12:00,53.2,49.5,-100.00,NW,313,0.0,0.0,87,0.00,,,0.00,meteohub,2013-07-28 08:12:00,
2013-07-28 03:17:00,53.1,49.3,-100.00,NW,313,0.0,0.0,87,0.00,,,0.00,meteohub,2013-07-28 08:17:00,
2013-07-28 03:22:00,53.1,49.3,-100.00,NW,313,0.0,0.0,87,0.00,,,0.00,meteohub,2013-07-28 08:22:00,
2013-07-28 03:27:00,53.1,49.3,-100.00,NW,313,0.0,0.0,87,0.00,,,0.00,meteohub,2013-07-28 08:27:00,
2013-07-28 03:32:00,53.1,49.6,-100.00,NW,313,0.0,0.0,88,0.00,,,0.00,meteohub,2013-07-28 08:32:00,
2013-07-28 03:37:00,53.2,49.8,-100.00,NW,313,0.0,0.0,88,0.00,,,0.00,meteohub,2013-07-28 08:37:00,
2013-07-28 03:42:00,53.4,50.0,-100.00,NW,313,0.0,0.0,88,0.00,,,0.00,meteohub,2013-07-28 08:42:00,
2013-07-28 03:48:00,53.2,49.8,-100.00,NW,313,0.0,0.0,88,0.00,,,0.00,meteohub,2013-07-28 08:48:00,
2013-07-28 03:53:00,53.2,49.8,-100.00,NW,313,0.0,0.0,88,0.00,,,0.00,meteohub,2013-07-28 08:53:00,
2013-07-28 03:58:00,53.1,49.6,-100.00,NW,313,0.0,0.0,88,0.00,,,0.00,meteohub,2013-07-28 08:58:00,
2013-07-28 04:03:00,53.1,49.6,-100.00,NW,313,0.0,0.0,88,0.00,,,0.00,meteohub,2013-07-28 09:03:00,
2013-07-28 04:08:00,52.9,49.5,-100.00,NW,313,0.0,0.0,88,0.00,,,0.00,meteohub,2013-07-28 09:08:00,
2013-07-28 04:13:00,52.9,49.5,-100.00,NW,313,0.0,0.0,88,0.00,,,0.00,meteohub,2013-07-28 09:13:00,
2013-07-28 04:18:00,52.5,49.1,-100.00,NW,313,0.0,0.0,88,0.00,,,0.00,meteohub,2013-07-28 09:18:00,
2013-07-28 04:23:00,52.5,49.1,-100.00,NW,313,0.0,0.0,88,0.00,,,0.00,meteohub,2013-07-28 09:23:00,
2013-07-28 04:28:00,52.3,49.3,-100.00,NW,313,0.0,0.0,89,0.00,,,0.00,meteohub,2013-07-28 09:28:00,
2013-07-28 04:33:00,52.5,49.5,-100.00,NW,313,0.0,0.0,89,0.00,,,0.00,meteohub,2013-07-28 09:33:00,
2013-07-28 04:38:00,52.5,49.5,-100.00,NW,313,0.0,0.0,89,0.00,,,0.00,meteohub,2013-07-28 09:38:00,
2013-07-28 04:43:00,52.5,49.5,-100.00,NW,313,0.0,0.0,89,0.00,,,0.00,meteohub,2013-07-28 09:43:00,
2013-07-28 04:48:00,52.7,49.5,-100.00,WNW,299,0.0,0.0,89,0.00,,,0.00,meteohub,2013-07-28 09:48:00,
2013-07-28 04:53:00,52.7,49.5,-100.00,West,273,0.0,0.0,89,0.00,,,0.00,meteohub,2013-07-28 09:53:00,
2013-07-28 04:58:00,52.7,49.3,-100.00,West,273,0.0,3.0,88,0.00,,,0.00,meteohub,2013-07-28 09:58:00,
2013-07-28 05:03:00,52.7,49.3,-100.00,West,273,0.0,3.0,88,0.00,,,0.00,meteohub,2013-07-28 10:03:00,
2013-07-28 05:08:00,52.7,49.3,-100.00,West,273,0.0,3.0,88,0.00,,,0.00,meteohub,2013-07-28 10:08:00,
2013-07-28 05:13:00,52.5,48.7,-100.00,West,273,0.0,0.0,87,0.00,,,0.00,meteohub,2013-07-28 10:13:00,
2013-07-28 05:18:00,52.5,48.7,-100.00,West,273,0.0,0.0,87,0.00,,,0.00,meteohub,2013-07-28 10:18:00,
2013-07-28 05:23:00,52.7,48.9,-100.00,West,272,0.0,0.0,87,0.00,,,0.00,meteohub,2013-07-28 10:23:00,
2013-07-28 05:28:00,52.9,49.1,-100.00,West,273,0.0,0.0,87,0.00,,,0.00,meteohub,2013-07-28 10:28:00,
2013-07-28 05:33:00,52.9,49.1,-100.00,West,273,0.0,0.0,87,0.00,,,0.00,meteohub,2013-07-28 10:33:00,
2013-07-28 05:38:00,52.5,48.7,-100.00,West,273,0.0,0.0,87,0.00,,,0.00,meteohub,2013-07-28 10:38:00,
2013-07-28 05:43:00,52.3,48.6,-100.00,West,273,0.0,0.0,87,0.00,,,0.00,meteohub,2013-07-28 10:43:00,
2013-07-28 05:48:00,52.3,48.6,-100.00,West,273,0.0,0.0,87,0.00,,,0.00,meteohub,2013-07-28 10:48:00,
2013-07-28 05:53:00,52.2,48.4,-100.00,West,273,0.0,0.0,87,0.00,,,0.00,meteohub,2013-07-28 10:53:00,
2013-07-28 05:58:00,52.2,48.7,-100.00,West,272,0.0,0.0,88,0.00,,,0.00,meteohub,2013-07-28 10:58:00,
2013-07-28 06:03:00,52.2,48.7,-100.00,West,273,0.0,0.0,88,0.00,,,0.00,meteohub,2013-07-28 11:03:00,
2013-07-28 06:08:00,52.2,48.7,-100.00,West,271,0.0,0.0,88,0.00,,,0.00,meteohub,2013-07-28 11:08:00,
2013-07-28 06:13:00,52.2,48.7,-100.00,West,271,0.0,0.0,88,0.00,,,0.00,meteohub,2013-07-28 11:13:00,
2013-07-28 06:18:00,52.2,49.1,-100.00,West,271,0.0,0.0,89,0.00,,,0.00,meteohub,2013-07-28 11:18:00,
2013-07-28 06:23:00,52.3,49.3,-100.00,West,271,0.0,0.0,89,0.00,,,0.00,meteohub,2013-07-28 11:23:00,
2013-07-28 06:28:00,52.5,49.5,-100.00,WSW,256,0.0,0.0,89,0.00,,,0.00,meteohub,2013-07-28 11:28:00,
2013-07-28 06:33:00,52.7,49.8,-100.00,WSW,245,0.0,1.0,90,0.00,,,0.00,meteohub,2013-07-28 11:33:00,
2013-07-28 06:38:00,52.9,50.0,-100.00,WSW,244,0.0,5.0,90,0.00,,,0.00,meteohub,2013-07-28 11:38:00,
2013-07-28 06:43:00,53.2,50.4,-100.00,WSW,242,0.0,5.0,90,0.00,,,0.00,meteohub,2013-07-28 11:43:00,
2013-07-28 06:48:00,53.6,50.7,-100.00,WSW,241,0.0,5.0,90,0.00,,,0.00,meteohub,2013-07-28 11:48:00,
2013-07-28 06:53:00,54.1,51.3,-100.00,WSW,240,0.0,1.0,90,0.00,,,0.00,meteohub,2013-07-28 11:53:00,
2013-07-28 06:58:00,55.0,52.2,-100.00,WSW,240,0.0,1.0,90,0.00,,,0.00,meteohub,2013-07-28 11:58:00,
2013-07-28 07:03:00,55.9,52.7,-100.00,SW,235,0.0,1.0,89,0.00,,,0.00,meteohub,2013-07-28 12:03:00,
2013-07-28 07:08:00,56.8,53.1,-100.00,SW,221,2.0,4.0,87,0.00,,,0.00,meteohub,2013-07-28 12:08:00,
2013-07-28 07:13:00,57.6,52.7,-100.00,SW,218,1.0,6.0,84,0.00,,,0.00,meteohub,2013-07-28 12:13:00,
2013-07-28 07:18:00,58.5,53.1,-100.00,SW,225,1.0,6.0,82,0.00,,,0.00,meteohub,2013-07-28 12:18:00,
2013-07-28 07:23:00,59.0,52.9,-100.00,SW,236,4.0,7.0,80,0.00,,,0.00,meteohub,2013-07-28 12:23:00,
2013-07-28 07:28:00,59.4,53.2,-100.00,SW,226,4.0,7.0,80,0.00,,,0.00,meteohub,2013-07-28 12:28:00,
2013-07-28 07:33:00,59.7,52.9,-100.00,SW,225,4.0,15.0,78,0.00,,,0.00,meteohub,2013-07-28 12:33:00,
2013-07-28 07:38:00,60.3,53.1,-100.00,SW,232,0.0,15.0,77,0.00,,,0.00,meteohub,2013-07-28 12:38:00,
2013-07-28 07:43:00,60.6,53.4,-100.00,SW,226,0.0,13.0,77,0.00,,,0.00,meteohub,2013-07-28 12:43:00,
2013-07-28 07:48:00,61.0,53.1,-100.00,SW,236,1.0,10.0,75,0.00,,,0.00,meteohub,2013-07-28 12:48:00,
2013-07-28 07:53:00,61.5,53.2,-100.00,WSW,241,3.0,10.0,74,0.00,,,0.00,meteohub,2013-07-28 12:53:00,
2013-07-28 07:58:00,62.2,53.4,-100.00,WSW,238,2.0,10.0,73,0.00,,,0.00,meteohub,2013-07-28 12:58:00,
2013-07-28 08:03:00,62.8,53.2,-100.00,SW,230,4.0,7.0,71,0.00,,,0.00,meteohub,2013-07-28 13:03:00,
2013-07-28 08:09:00,62.8,52.9,-100.00,SW,217,0.0,7.0,70,0.00,,,0.00,meteohub,2013-07-28 13:09:00,
2013-07-28 08:14:00,63.0,53.4,-100.00,SW,231,0.0,11.0,71,0.00,,,0.00,meteohub,2013-07-28 13:14:00,
2013-07-28 08:19:00,63.7,54.1,-100.00,SW,231,0.0,11.0,71,0.00,,,0.00,meteohub,2013-07-28 13:19:00,
2013-07-28 08:24:00,64.8,54.0,-100.00,SW,232,3.0,9.0,68,0.00,,,0.00,meteohub,2013-07-28 13:24:00,
2013-07-28 08:29:00,65.7,54.0,-100.00,SW,236,2.0,9.0,66,0.00,,,0.00,meteohub,2013-07-28 13:29:00,
2013-07-28 08:34:00,66.2,53.6,-100.00,SW,227,6.0,9.0,64,0.00,,,0.00,meteohub,2013-07-28 13:34:00,
2013-07-28 08:39:00,66.7,53.2,-100.00,West,273,0.0,13.0,62,0.00,,,0.00,meteohub,2013-07-28 13:39:00,
2013-07-28 08:44:00,67.3,53.4,-100.00,SW,219,3.0,13.0,61,0.00,,,0.00,meteohub,2013-07-28 13:44:00,
2013-07-28 08:49:00,68.0,54.0,-100.00,WSW,254,1.0,14.0,61,0.00,,,0.00,meteohub,2013-07-28 13:49:00,
2013-07-28 08:54:00,68.7,53.8,-100.00,SW,223,0.0,14.0,59,0.00,,,0.00,meteohub,2013-07-28 13:54:00,
2013-07-28 08:59:00,69.4,53.1,-100.00,SW,222,0.0,14.0,56,0.00,,,0.00,meteohub,2013-07-28 13:59:00,
2013-07-28 09:04:00,70.0,53.6,-100.00,West,259,0.0,11.0,56,0.00,,,0.00,meteohub,2013-07-28 14:04:00,
2013-07-28 09:09:00,70.3,53.4,-100.00,WSW,252,0.0,12.0,55,0.00,,,0.00,meteohub,2013-07-28 14:09:00,
2013-07-28 09:14:00,70.7,53.8,-100.00,WSW,247,1.0,15.0,55,0.00,,,0.00,meteohub,2013-07-28 14:14:00,
2013-07-28 09:19:00,71.2,54.3,-100.00,WNW,291,6.0,15.0,55,0.00,,,0.00,meteohub,2013-07-28 14:19:00,
2013-07-28 09:24:00,72.0,54.0,-100.00,WNW,284,8.0,15.0,53,0.00,,,0.00,meteohub,2013-07-28 14:24:00,
2013-07-28 09:29:00,72.3,54.1,-100.00,WSW,237,0.0,14.0,53,0.00,,,0.00,meteohub,2013-07-28 14:29:00,
2013-07-28 09:34:00,72.9,54.1,-100.00,SW,232,0.0,14.0,52,0.00,,,0.00,meteohub,2013-07-28 14:34:00,
2013-07-28 09:39:00,73.6,54.9,-100.00,West,260,1.0,14.0,52,0.00,,,0.00,meteohub,2013-07-28 14:39:00,
2013-07-28 09:44:00,73.9,54.7,-100.00,West,275,9.0,15.0,51,0.00,,,0.00,meteohub,2013-07-28 14:44:00,
2013-07-28 09:49:00,73.9,53.6,-100.00,WNW,286,5.0,15.0,49,0.00,,,0.00,meteohub,2013-07-28 14:49:00,
2013-07-28 09:51:00,74.1,53.8,-100.00,SW,222,0.0,15.0,49,0.00,,,0.00,meteohub,2013-07-28 14:51:00,
2013-07-28 09:56:00,74.7,54.3,-100.00,West,279,3.0,15.0,49,0.00,,,0.00,meteohub,2013-07-28 14:56:00,
2013-07-28 10:01:00,75.7,53.4,-100.00,West,273,1.0,15.0,46,0.00,,,0.00,meteohub,2013-07-28 15:01:00,
2013-07-28 10:06:00,75.9,53.1,-100.00,West,260,4.0,15.0,45,0.00,,,0.00,meteohub,2013-07-28 15:06:00,
2013-07-28 10:11:00,75.7,52.9,-100.00,SW,234,2.0,15.0,45,0.00,,,0.00,meteohub,2013-07-28 15:11:00,
2013-07-28 10:16:00,75.9,53.1,-100.00,WNW,294,7.0,15.0,45,0.00,,,0.00,meteohub,2013-07-28 15:16:00,
2013-07-28 10:21:00,75.9,53.1,-100.00,West,260,4.0,15.0,45,0.00,,,0.00,meteohub,2013-07-28 15:21:00,
2013-07-28 10:26:00,76.6,53.8,-100.00,West,268,4.0,15.0,45,0.00,,,0.00,meteohub,2013-07-28 15:26:00,
2013-07-28 10:31:00,76.8,52.7,-100.00,WNW,291,4.0,15.0,43,0.00,,,0.00,meteohub,2013-07-28 15:31:00,
2013-07-28 10:36:00,76.6,52.5,-100.00,West,266,1.0,15.0,43,0.00,,,0.00,meteohub,2013-07-28 15:36:00,
2013-07-28 10:41:00,75.9,51.8,-100.00,NNW,331,2.0,14.0,43,0.00,,,0.00,meteohub,2013-07-28 15:41:00,
2013-07-28 10:46:00,75.7,51.6,-100.00,WNW,302,10.0,14.0,43,0.00,,,0.00,meteohub,2013-07-28 15:46:00,
2013-07-28 10:51:00,76.3,51.4,-100.00,NW,313,6.0,18.0,42,0.00,,,0.00,meteohub,2013-07-28 15:51:00,
2013-07-28 10:56:00,77.2,52.3,-100.00,SW,230,11.0,18.0,42,0.00,,,0.00,meteohub,2013-07-28 15:56:00,
2013-07-28 11:01:00,77.5,52.7,-100.00,West,265,2.0,18.0,42,0.00,,,0.00,meteohub,2013-07-28 16:01:00,
2013-07-28 11:06:00,78.1,52.5,-100.00,WNW,302,5.0,17.0,41,0.00,,,0.00,meteohub,2013-07-28 16:06:00,
2013-07-28 11:11:00,78.1,52.5,-100.00,West,268,6.0,17.0,41,0.00,,,0.00,meteohub,2013-07-28 16:11:00,
2013-07-28 11:16:00,78.3,52.7,-100.00,WNW,287,12.0,15.0,41,0.00,,,0.00,meteohub,2013-07-28 16:16:00,
2013-07-28 11:21:00,78.8,52.5,-100.00,West,279,1.0,14.0,40,0.00,,,0.00,meteohub,2013-07-28 16:21:00,
2013-07-28 11:26:00,79.2,53.4,-100.00,SW,233,3.0,14.0,41,0.00,,,0.00,meteohub,2013-07-28 16:26:00,
2013-07-28 11:31:00,78.6,52.3,-100.00,WNW,294,2.0,14.0,40,0.00,,,0.00,meteohub,2013-07-28 16:31:00,
2013-07-28 11:36:00,79.0,52.0,-100.00,West,277,2.0,17.0,39,0.00,,,0.00,meteohub,2013-07-28 16:36:00,
2013-07-28 11:41:00,79.3,52.2,-100.00,SW,234,2.0,17.0,39,0.00,,,0.00,meteohub,2013-07-28 16:41:00,
2013-07-28 11:46:00,79.3,52.2,-100.00,WSW,248,1.0,17.0,39,0.00,,,0.00,meteohub,2013-07-28 16:46:00,
2013-07-28 11:51:00,79.5,52.3,-100.00,West,263,12.0,16.0,39,0.00,,,0.00,meteohub,2013-07-28 16:51:00,
2013-07-28 11:56:00,79.0,52.0,-100.00,West,267,0.0,18.0,39,0.00,,,0.00,meteohub,2013-07-28 16:56:00,
2013-07-28 12:01:00,78.6,51.6,-100.00,West,263,2.0,18.0,39,0.00,,,0.00,meteohub,2013-07-28 17:01:00,
2013-07-28 12:06:00,78.1,51.8,-100.00,West,267,1.0,18.0,40,0.00,,,0.00,meteohub,2013-07-28 17:06:00,
2013-07-28 12:11:00,78.6,52.3,-100.00,WNW,302,13.0,14.0,40,0.00,,,0.00,meteohub,2013-07-28 17:11:00,
2013-07-28 12:16:00,77.5,52.7,-100.00,WSW,245,0.0,18.0,42,0.00,,,0.00,meteohub,2013-07-28 17:16:00,
2013-07-28 12:21:00,78.4,53.4,-100.00,WNW,297,1.0,18.0,42,0.00,,,0.00,meteohub,2013-07-28 17:21:00,
2013-07-28 12:26:00,78.4,52.7,-100.00,WNW,290,5.0,18.0,41,0.00,,,0.00,meteohub,2013-07-28 17:26:00,
2013-07-28 12:31:00,79.2,52.7,-100.00,West,271,2.0,15.0,40,0.00,,,0.00,meteohub,2013-07-28 17:31:00,
2013-07-28 12:36:00,79.7,51.8,-100.00,WNW,290,4.0,15.0,38,0.00,,,0.00,meteohub,2013-07-28 17:36:00,
2013-07-28 12:41:00,80.1,52.2,-100.00,West,273,0.0,14.0,38,0.00,,,0.00,meteohub,2013-07-28 17:41:00,
2013-07-28 12:47:00,80.4,52.5,-100.00,WNW,300,5.0,14.0,38,0.00,,,0.00,meteohub,2013-07-28 17:47:00,
2013-07-28 12:52:00,79.0,51.3,-100.00,NNW,328,14.0,14.0,38,0.00,,,0.00,meteohub,2013-07-28 17:52:00,
2013-07-28 12:57:00,77.5,52.0,-100.00,West,281,6.0,16.0,41,0.00,,,0.00,meteohub,2013-07-28 17:57:00,
2013-07-28 13:02:00,79.0,52.5,-100.00,SW,223,3.0,16.0,40,0.00,,,0.00,meteohub,2013-07-28 18:02:00,
2013-07-28 13:07:00,79.9,52.0,-100.00,West,262,1.0,14.0,38,0.00,,,0.00,meteohub,2013-07-28 18:07:00,
2013-07-28 13:12:00,80.2,51.6,-100.00,WNW,292,1.0,16.0,37,0.00,,,0.00,meteohub,2013-07-28 18:12:00,
2013-07-28 13:17:00,80.4,51.1,-100.00,West,267,10.0,16.0,36,0.00,,,0.00,meteohub,2013-07-28 18:17:00,
2013-07-28 13:22:00,80.8,52.2,-100.00,SW,221,3.0,16.0,37,0.00,,,0.00,meteohub,2013-07-28 18:22:00,
2013-07-28 13:27:00,81.0,52.2,-100.00,West,265,3.0,16.0,37,0.00,,,0.00,meteohub,2013-07-28 18:27:00,
2013-07-28 13:32:00,81.1,51.6,-100.00,NW,323,0.0,15.0,36,0.00,,,0.00,meteohub,2013-07-28 18:32:00,
2013-07-28 13:37:00,81.1,51.6,-100.00,SW,227,0.0,15.0,36,0.00,,,0.00,meteohub,2013-07-28 18:37:00,
2013-07-28 13:42:00,80.8,52.9,-100.00,NW,311,6.0,15.0,38,0.00,,,0.00,meteohub,2013-07-28 18:42:00,
2013-07-28 13:47:00,80.1,52.2,-100.00,West,279,4.0,14.0,38,0.00,,,0.00,meteohub,2013-07-28 18:47:00,
2013-07-28 13:52:00,81.0,52.2,-100.00,NW,321,6.0,14.0,37,0.00,,,0.00,meteohub,2013-07-28 18:52:00,
2013-07-28 13:57:00,80.1,51.4,-100.00,NW,315,0.0,14.0,37,0.00,,,0.00,meteohub,2013-07-28 18:57:00,
2013-07-28 14:02:00,80.1,52.2,-100.00,WNW,302,1.0,19.0,38,0.00,,,0.00,meteohub,2013-07-28 19:02:00,
2013-07-28 14:07:00,80.2,51.6,-100.00,WNW,293,2.0,19.0,37,0.00,,,0.00,meteohub,2013-07-28 19:07:00,
2013-07-28 14:12:00,79.7,51.1,-100.00,WNW,289,3.0,19.0,37,0.00,,,0.00,meteohub,2013-07-28 19:12:00,
2013-07-28 14:17:00,80.2,52.3,-100.00,WSW,257,0.0,17.0,38,0.00,,,0.00,meteohub,2013-07-28 19:17:00,
2013-07-28 14:22:00,81.3,52.5,-100.00,SW,232,0.0,17.0,37,0.00,,,0.00,meteohub,2013-07-28 19:22:00,
2013-07-28 14:27:00,81.9,53.8,-100.00,WSW,241,4.0,11.0,38,0.00,,,0.00,meteohub,2013-07-28 19:27:00,
2013-07-28 14:32:00,82.0,53.2,-100.00,West,260,0.0,11.0,37,0.00,,,0.00,meteohub,2013-07-28 19:32:00,
2013-07-28 14:37:00,82.6,53.6,-100.00,WSW,258,0.0,11.0,37,0.00,,,0.00,meteohub,2013-07-28 19:37:00,
2013-07-28 14:42:00,82.8,52.3,-100.00,WNW,303,4.0,15.0,35,0.00,,,0.00,meteohub,2013-07-28 19:42:00,
2013-07-28 14:47:00,81.7,52.9,-100.00,WNW,299,0.0,15.0,37,0.00,,,0.00,meteohub,2013-07-28 19:47:00,
2013-07-28 14:52:00,81.9,52.3,-100.00,West,263,0.0,15.0,36,0.00,,,0.00,meteohub,2013-07-28 19:52:00,
2013-07-28 14:57:00,82.6,53.6,-100.00,West,276,0.0,11.0,37,0.00,,,0.00,meteohub,2013-07-28 19:57:00,
2013-07-28 15:02:00,83.3,53.6,-100.00,NW,305,1.0,11.0,36,0.00,,,0.00,meteohub,2013-07-28 20:02:00,
2013-07-28 15:07:00,82.0,53.2,-100.00,WNW,295,7.0,11.0,37,0.00,,,0.00,meteohub,2013-07-28 20:07:00,
2013-07-28 15:12:00,80.8,52.2,-100.00,WNW,288,2.0,13.0,37,0.00,,,0.00,meteohub,2013-07-28 20:12:00,
2013-07-28 15:17:00,81.0,51.4,-100.00,NW,311,4.0,13.0,36,0.00,,,0.00,meteohub,2013-07-28 20:17:00,
2013-07-28 15:22:00,80.1,52.9,-100.00,NW,309,1.0,11.0,39,0.00,,,0.00,meteohub,2013-07-28 20:22:00,
2013-07-28 15:27:00,79.5,52.3,-100.00,West,259,0.0,11.0,39,0.00,,,0.00,meteohub,2013-07-28 20:27:00,
2013-07-28 15:32:00,80.4,52.5,-100.00,West,270,2.0,6.0,38,0.00,,,0.00,meteohub,2013-07-28 20:32:00,
2013-07-28 15:37:00,81.3,52.5,-100.00,WNW,298,12.0,12.0,37,0.00,,,0.00,meteohub,2013-07-28 20:37:00,
2013-07-28 15:42:00,81.0,52.2,-100.00,WNW,286,2.0,14.0,37,0.00,,,0.00,meteohub,2013-07-28 20:42:00,
2013-07-28 15:47:00,81.1,53.8,-100.00,NW,307,1.0,14.0,39,0.00,,,0.00,meteohub,2013-07-28 20:47:00,
2013-07-28 15:52:00,80.8,52.2,-100.00,NW,317,6.0,14.0,37,0.00,,,0.00,meteohub,2013-07-28 20:52:00,
2013-07-28 15:57:00,79.5,53.1,-100.00,WNW,300,1.0,15.0,40,0.00,,,0.00,meteohub,2013-07-28 20:57:00,
2013-07-28 16:02:00,79.2,52.2,-100.00,NNW,327,0.0,15.0,39,0.00,,,0.00,meteohub,2013-07-28 21:02:00,
2013-07-28 16:07:00,79.0,52.5,-100.00,NW,309,0.0,15.0,40,0.00,,,0.00,meteohub,2013-07-28 21:07:00,
2013-07-28 16:12:00,80.1,51.4,-100.00,West,275,0.0,13.0,37,0.00,,,0.00,meteohub,2013-07-28 21:12:00,
2013-07-28 16:17:00,80.8,52.2,-100.00,West,264,0.0,10.0,37,0.00,,,0.00,meteohub,2013-07-28 21:17:00,
2013-07-28 16:22:00,81.5,53.4,-100.00,WNW,288,0.0,7.0,38,0.00,,,0.00,meteohub,2013-07-28 21:22:00,
2013-07-28 16:27:00,81.7,52.9,-100.00,NW,304,12.0,12.0,37,0.00,,,0.00,meteohub,2013-07-28 21:27:00,
2013-07-28 16:32:00,80.6,52.0,-100.00,NW,316,1.0,12.0,37,0.00,,,0.00,meteohub,2013-07-28 21:32:00,
2013-07-28 16:37:00,80.2,52.3,-100.00,WNW,288,1.0,12.0,38,0.00,,,0.00,meteohub,2013-07-28 21:37:00,
2013-07-28 16:42:00,80.2,53.1,-100.00,WNW,290,1.0,12.0,39,0.00,,,0.00,meteohub,2013-07-28 21:42:00,
2013-07-28 16:47:00,80.2,53.1,-100.00,NW,318,4.0,4.0,39,0.00,,,0.00,meteohub,2013-07-28 21:47:00,
2013-07-28 16:52:00,79.9,53.4,-100.00,West,276,0.0,9.0,40,0.00,,,0.00,meteohub,2013-07-28 21:52:00,
2013-07-28 16:57:00,79.7,52.5,-100.00,NW,322,1.0,9.0,39,0.00,,,0.00,meteohub,2013-07-28 21:57:00,
2013-07-28 17:02:00,79.5,53.1,-100.00,NW,307,0.0,9.0,40,0.00,,,0.00,meteohub,2013-07-28 22:02:00,
2013-07-28 17:07:00,80.1,52.2,-100.00,WNW,294,3.0,3.0,38,0.00,,,0.00,meteohub,2013-07-28 22:07:00,
2013-07-28 17:12:00,80.8,52.9,-100.00,SW,226,3.0,11.0,38,0.00,,,0.00,meteohub,2013-07-28 22:12:00,
2013-07-28 17:17:00,81.0,52.2,-100.00,WSW,250,0.0,11.0,37,0.00,,,0.00,meteohub,2013-07-28 22:17:00,
2013-07-28 17:22:00,81.1,53.1,-100.00,WSW,243,0.0,11.0,38,0.00,,,0.00,meteohub,2013-07-28 22:22:00,
2013-07-28 17:27:00,81.1,53.1,-100.00,NNW,338,2.0,3.0,38,0.00,,,0.00,meteohub,2013-07-28 22:27:00,
2013-07-28 17:32:00,80.2,53.8,-100.00,NW,313,0.0,9.0,40,0.00,,,0.00,meteohub,2013-07-28 22:32:00,
2013-07-28 17:37:00,79.9,52.7,-100.00,NNW,329,2.0,9.0,39,0.00,,,0.00,meteohub,2013-07-28 22:37:00,
2013-07-28 17:42:00,79.2,52.7,-100.00,WNW,298,0.0,9.0,40,0.00,,,0.00,meteohub,2013-07-28 22:42:00,
2013-07-28 17:47:00,79.2,53.4,-100.00,NW,309,1.0,3.0,41,0.00,,,0.00,meteohub,2013-07-28 22:47:00,
2013-07-28 17:52:00,79.0,54.0,-100.00,WNW,297,1.0,3.0,42,0.00,,,0.00,meteohub,2013-07-28 22:52:00,
2013-07-28 17:57:00,78.8,53.1,-100.00,NNW,339,0.0,6.0,41,0.00,,,0.00,meteohub,2013-07-28 22:57:00,
2013-07-28 18:02:00,78.6,52.9,-100.00,ENE,60,0.0,6.0,41,0.00,,,0.00,meteohub,2013-07-28 23:02:00,
2013-07-28 18:07:00,78.4,53.4,-100.00,NW,309,0.0,6.0,42,0.00,,,0.00,meteohub,2013-07-28 23:07:00,
2013-07-28 18:12:00,78.4,54.1,-100.00,NW,304,1.0,4.0,43,0.00,,,0.00,meteohub,2013-07-28 23:12:00,
2013-07-28 18:17:00,78.4,52.7,-100.00,WNW,299,0.0,4.0,41,0.00,,,0.00,meteohub,2013-07-28 23:17:00,
2013-07-28 18:22:00,78.4,53.4,-100.00,WNW,297,2.0,5.0,42,0.00,,,0.00,meteohub,2013-07-28 23:22:00,
2013-07-28 18:27:00,78.4,53.4,-100.00,WNW,286,2.0,5.0,42,0.00,,,0.00,meteohub,2013-07-28 23:27:00,
2013-07-28 18:32:00,78.3,53.2,-100.00,NW,311,4.0,5.0,42,0.00,,,0.00,meteohub,2013-07-28 23:32:00,
2013-07-28 18:37:00,78.1,53.1,-100.00,NW,319,0.0,6.0,42,0.00,,,0.00,meteohub,2013-07-28 23:37:00,
2013-07-28 18:42:00,77.9,53.6,-100.00,NW,313,1.0,6.0,43,0.00,,,0.00,meteohub,2013-07-28 23:42:00,
2013-07-28 18:47:00,77.7,52.9,-100.00,NW,304,0.0,6.0,42,0.00,,,0.00,meteohub,2013-07-28 23:47:00,
2013-07-28 18:52:00,77.7,52.9,-100.00,North,0,0.0,6.0,42,0.00,,,0.00,meteohub,2013-07-28 23:52:00,
2013-07-28 18:57:00,77.4,52.5,-100.00,NNW,328,0.0,5.0,42,0.00,,,0.00,meteohub,2013-07-28 23:57:00,
2013-07-28 19:02:00,77.2,52.9,-100.00,WNW,296,0.0,4.0,43,0.00,,,0.00,meteohub,2013-07-29 00:02:00,
2013-07-28 19:07:00,77.4,53.8,-100.00,WNW,303,0.0,4.0,44,0.00,,,0.00,meteohub,2013-07-29 00:07:00,
2013-07-28 19:12:00,77.4,53.8,-100.00,WNW,302,3.0,3.0,44,0.00,,,0.00,meteohub,2013-07-29 00:12:00,
2013-07-28 19:17:00,76.8,53.8,-100.00,WNW,294,0.0,3.0,45,0.00,,,0.00,meteohub,2013-07-29 00:17:00,
2013-07-28 19:22:00,76.5,54.1,-100.00,NW,323,0.0,3.0,46,0.00,,,0.00,meteohub,2013-07-29 00:22:00,
2013-07-28 19:27:00,76.3,54.0,-100.00,NW,322,2.0,3.0,46,0.00,,,0.00,meteohub,2013-07-29 00:27:00,
2013-07-28 19:32:00,75.7,53.4,-100.00,NW,322,0.0,4.0,46,0.00,,,0.00,meteohub,2013-07-29 00:32:00,
2013-07-28 19:37:00,75.4,53.8,-100.00,NW,322,0.0,4.0,47,0.00,,,0.00,meteohub,2013-07-29 00:37:00,
2013-07-28 19:42:00,75.2,54.1,-100.00,NW,323,1.0,4.0,48,0.00,,,0.00,meteohub,2013-07-29 00:42:00,
2013-07-28 19:47:00,75.0,54.5,-100.00,NW,323,0.0,2.0,49,0.00,,,0.00,meteohub,2013-07-29 00:47:00,
2013-07-28 19:52:00,74.7,54.3,-100.00,NW,323,0.0,4.0,49,0.00,,,0.00,meteohub,2013-07-29 00:52:00,
2013-07-28 19:57:00,74.1,53.8,-100.00,NW,321,0.0,4.0,49,0.00,,,0.00,meteohub,2013-07-29 00:57:00,
2013-07-28 20:02:00,73.9,54.1,-100.00,NW,322,0.0,1.0,50,0.00,,,0.00,meteohub,2013-07-29 01:02:00,
2013-07-28 20:07:00,73.6,53.8,-100.00,NW,322,0.0,1.0,50,0.00,,,0.00,meteohub,2013-07-29 01:07:00,
2013-07-28 20:12:00,73.0,53.8,-100.00,NW,322,0.0,1.0,51,0.00,,,0.00,meteohub,2013-07-29 01:12:00,
2013-07-28 20:17:00,72.3,53.2,-100.00,NW,322,0.0,1.0,51,0.00,,,0.00,meteohub,2013-07-29 01:17:00,
2013-07-28 20:22:00,71.8,53.2,-100.00,NW,322,0.0,1.0,52,0.00,,,0.00,meteohub,2013-07-29 01:22:00,
2013-07-28 20:27:00,71.1,53.1,-100.00,NW,322,0.0,0.0,53,0.00,,,0.00,meteohub,2013-07-29 01:27:00,
2013-07-28 20:32:00,70.5,53.1,-100.00,NW,322,0.0,0.0,54,0.00,,,0.00,meteohub,2013-07-29 01:32:00,
2013-07-28 20:37:00,70.2,53.2,-100.00,NW,322,0.0,0.0,55,0.00,,,0.00,meteohub,2013-07-29 01:37:00,
2013-07-28 20:42:00,69.8,52.9,-100.00,NW,322,0.0,0.0,55,0.00,,,0.00,meteohub,2013-07-29 01:42:00,
2013-07-28 20:47:00,69.6,53.2,-100.00,NW,322,0.0,0.0,56,0.00,,,0.00,meteohub,2013-07-29 01:47:00,
2013-07-28 20:52:00,69.3,52.9,-100.00,NW,322,0.0,0.0,56,0.00,,,0.00,meteohub,2013-07-29 01:52:00,
2013-07-28 20:57:00,69.1,53.2,-100.00,NW,322,0.0,0.0,57,0.00,,,0.00,meteohub,2013-07-29 01:57:00,
2013-07-28 21:02:00,68.7,52.9,-100.00,NW,322,0.0,0.0,57,0.00,,,0.00,meteohub,2013-07-29 02:02:00,
2013-07-28 21:07:00,68.5,52.7,-100.00,NW,322,0.0,0.0,57,0.00,,,0.00,meteohub,2013-07-29 02:07:00,
2013-07-28 21:12:00,68.5,53.2,-100.00,NW,322,0.0,0.0,58,0.00,,,0.00,meteohub,2013-07-29 02:12:00,
2013-07-28 21:17:00,68.4,53.1,-100.00,NW,322,0.0,0.0,58,0.00,,,0.00,meteohub,2013-07-29 02:17:00,
2013-07-28 21:22:00,68.4,53.1,-100.00,NW,322,0.0,0.0,58,0.00,,,0.00,meteohub,2013-07-29 02:22:00,
2013-07-28 21:27:00,68.2,52.9,-100.00,NW,322,0.0,0.0,58,0.00,,,0.00,meteohub,2013-07-29 02:27:00,
2013-07-28 21:33:00,68.0,53.1,-100.00,NW,322,0.0,0.0,59,0.00,,,0.00,meteohub,2013-07-29 02:33:00,
2013-07-28 21:38:00,68.0,53.1,-100.00,NW,322,0.0,0.0,59,0.00,,,0.00,meteohub,2013-07-29 02:38:00,
2013-07-28 21:43:00,67.8,52.9,-100.00,NW,322,0.0,0.0,59,0.00,,,0.00,meteohub,2013-07-29 02:43:00,
2013-07-28 21:48:00,67.8,52.9,-100.00,NW,322,0.0,0.0,59,0.00,,,0.00,meteohub,2013-07-29 02:48:00,
2013-07-28 21:53:00,68.2,53.2,-100.00,NW,322,0.0,0.0,59,0.00,,,0.00,meteohub,2013-07-29 02:53:00,
2013-07-28 21:58:00,68.0,53.1,-100.00,NW,322,0.0,0.0,59,0.00,,,0.00,meteohub,2013-07-29 02:58:00,
2013-07-28 22:03:00,67.6,52.9,-100.00,NW,322,0.0,0.0,59,0.00,,,0.00,meteohub,2013-07-29 03:03:00,
2013-07-28 22:08:00,67.3,52.9,-100.00,NW,322,0.0,0.0,60,0.00,,,0.00,meteohub,2013-07-29 03:08:00,
2013-07-28 22:13:00,66.9,53.1,-100.00,NW,322,0.0,0.0,61,0.00,,,0.00,meteohub,2013-07-29 03:13:00,
2013-07-28 22:18:00,66.7,52.9,-100.00,NW,322,0.0,0.0,61,0.00,,,0.00,meteohub,2013-07-29 03:18:00,
2013-07-28 22:23:00,66.6,52.7,-100.00,NW,322,0.0,0.0,61,0.00,,,0.00,meteohub,2013-07-29 03:23:00,
2013-07-28 22:28:00,66.4,52.9,-100.00,NW,322,0.0,0.0,62,0.00,,,0.00,meteohub,2013-07-29 03:28:00,
2013-07-28 22:33:00,66.0,53.1,-100.00,NW,322,0.0,0.0,63,0.00,,,0.00,meteohub,2013-07-29 03:33:00,
2013-07-28 22:38:00,65.7,52.7,-100.00,NW,322,0.0,0.0,63,0.00,,,0.00,meteohub,2013-07-29 03:38:00,
2013-07-28 22:43:00,65.5,53.1,-100.00,NW,322,0.0,0.0,64,0.00,,,0.00,meteohub,2013-07-29 03:43:00,
2013-07-28 22:48:00,65.3,52.9,-100.00,NW,322,0.0,0.0,64,0.00,,,0.00,meteohub,2013-07-29 03:48:00,
2013-07-28 22:53:00,65.1,53.1,-100.00,NW,322,0.0,0.0,65,0.00,,,0.00,meteohub,2013-07-29 03:53:00,
2013-07-28 22:58:00,64.9,53.2,-100.00,NW,322,0.0,0.0,66,0.00,,,0.00,meteohub,2013-07-29 03:58:00,
2013-07-28 23:01:00,64.8,53.1,-100.00,NW,322,0.0,0.0,66,0.00,,,0.00,meteohub,2013-07-29 04:01:00,
2013-07-28 23:06:00,64.6,52.9,-100.00,NW,322,0.0,0.0,66,0.00,,,0.00,meteohub,2013-07-29 04:06:00,
2013-07-28 23:11:00,64.4,53.2,-100.00,NW,322,0.0,0.0,67,0.00,,,0.00,meteohub,2013-07-29 04:11:00,
2013-07-28 23:16:00,64.0,52.9,-100.00,NW,322,0.0,0.0,67,0.00,,,0.00,meteohub,2013-07-29 04:16:00,
2013-07-28 23:21:00,63.9,53.1,-100.00,NW,322,0.0,0.0,68,0.00,,,0.00,meteohub,2013-07-29 04:21:00,
2013-07-28 23:26:00,63.9,53.1,-100.00,NW,322,0.0,0.0,68,0.00,,,0.00,meteohub,2013-07-29 04:26:00,
2013-07-28 23:31:00,63.7,52.9,-100.00,NW,322,0.0,0.0,68,0.00,,,0.00,meteohub,2013-07-29 04:31:00,
2013-07-28 23:36:00,63.7,53.8,-100.00,NW,322,0.0,0.0,70,0.00,,,0.00,meteohub,2013-07-29 04:36:00,
2013-07-28 23:41:00,63.3,53.8,-100.00,NW,322,0.0,0.0,71,0.00,,,0.00,meteohub,2013-07-29 04:41:00,
2013-07-28 23:46:00,63.1,53.2,-100.00,NW,322,0.0,0.0,70,0.00,,,0.00,meteohub,2013-07-29 04:46:00,
2013-07-28 23:51:00,63.0,53.4,-100.00,NW,322,0.0,0.0,71,0.00,,,0.00,meteohub,2013-07-29 04:51:00,
2013-07-28 23:56:00,62.8,53.2,-100.00,NW,322,0.0,0.0,71,0.00,,,0.00,meteohub,2013-07-29 04:56:00,